This demonstration page uses our WeatherBlox Daily Observations layout. Learn more.

38.88101, -77.10428

Hourly Observations for August 1, 2015

Temp ( °F °C ) Dew Point ( °F °C ) Humidity (%) Winds ( mph kmh ) Pressure ( in mb ) Visibility ( mi km ) Precip ( " mm )
12:52 am 00:52 Mostly Clear 79 26.1 64 17.8 60 60 SW 7 11 29.9 1013 10 16.0934 0 0
1:52 am 01:52 Mostly Clear 77 25 64 17.8 64 64 SSW 7 11 29.89 1012 10 16.0934 0 0
2:52 am 02:52 Mostly Clear 76 24.4 64 17.8 67 67 S 6 9 29.88 1012 10 16.0934 0 0
3:52 am 03:52 Mostly Clear 75 23.9 65 18.3 71 71 S 5 7 29.87 1012 10 16.0934 0 0
4:52 am 04:52 Clear 75 23.9 64 17.8 69 69 S 6 9 29.86 1011 10 16.0934 0 0
5:52 am 05:52 Partly Cloudy 74 23.3 64 17.8 71 71 SSW 6 9 29.87 1011 10 16.0934 0 0
6:52 am 06:52 Partly Cloudy 75 23.9 64 17.8 69 69 SW 5 7 29.87 1012 10 16.0934 0 0
7:52 am 07:52 Partly Cloudy 78 25.6 64 17.8 62 62 SSW 6 9 29.88 1012 10 16.0934 0 0
8:52 am 08:52 Mostly Cloudy 82 27.8 65 18.3 56 56 S 5 7 29.89 1012 10 16.0934 0 0
9:52 am 09:52 Mostly Cloudy 85 29.4 63 17.2 48 48 W 6 9 29.89 1012 10 16.0934 0 0
10:52 am 10:52 Mostly Cloudy 89 31.7 64 17.8 43 43 W 7 11 29.89 1012 10 16.0934 0 0
11:52 am 11:52 Mostly Cloudy 87 30.6 62 16.7 43 43 W 8 13 29.9 1013 10 16.0934 0 0
12:52 pm 12:52 Mostly Cloudy 90 32.2 63 17.2 41 41 WNW 7 11 29.89 1012 10 16.0934 0 0
1:52 pm 13:52 Mostly Cloudy 89 31.7 65 18.3 45 45 NW 8 13 29.87 1012 10 16.0934 0 0
2:52 pm 14:52 Mostly Cloudy 88 31.1 64 17.8 45 45 SSW 9 15 29.86 1011 10 16.0934 0 0
3:52 pm 15:52 Partly Cloudy 92 33.3 64 17.8 40 40 W 9 15 29.85 1011 10 16.0934 0 0.0254
4:52 pm 16:52 Mostly Cloudy 90 32.2 63 17.2 41 41 W 10 17 29.84 1011 10 16.0934 0 0
5:52 pm 17:52 Partly Cloudy 90 32.2 63 17.2 41 41 W 10 17 29.84 1010 10 16.0934 0 0
6:52 pm 18:52 Partly Cloudy 90 32.2 63 17.2 41 41 NNW 9 15 29.84 1010 10 16.0934 0 0
7:52 pm 19:52 Sunny 88 31 57 14 35 35 N 7 11 29.85 1011 10 16.0934 0 0
8:52 pm 20:52 Mostly Clear 86 30 60 15.6 42 42 NW 7 11 29.86 1011 10 16.0934 0 0
9:52 pm 21:52 Mostly Clear 85 29.4 59 15 42 42 W 3 6 29.89 1012 10 16.0934 0 0
10:52 pm 22:52 Mostly Clear 82 27.8 59 15 46 46 NNW 7 11 29.89 1012 10 16.0934 0 0
11:52 pm 23:52 Mostly Clear 80 26.7 59 15 49 49 NNW 7 11 29.9 1013 10 16.0934 0 0

Powered by AerisWeather